Location: Dimsdale
(55.1333°N, 118.9833°W)
Time: 04:50:47
(UTC+00:00)

UNISAT 6 - Visible Passes

Search period start: 07 December 2023 00:00
Search period end: 17 December 2023 00:00
Orbit: 598 x 673 km, 97.7° (Epoch: 06 December)

Date Brightness Start Highest point End Pass type
(mag) Time Alt. Az. Time Alt. Az. Time Alt. Az.
07 Dec ? 01:30:40 10° NNE 01:35:10 76° WNW 01:39:31 10° SSW visible
07 Dec ? 03:08:19 10° NNW 03:10:53 15° NW 03:13:25 10° W visible
08 Dec ? 00:16:40 10° NE 00:20:26 26° E 00:24:06 10° SSE visible
08 Dec ? 01:52:48 10° N 01:57:08 49° WNW 02:01:21 10° SW visible
08 Dec ? 03:31:27 10° NNW 03:32:35 11° NW 03:33:43 10° WNW visible
09 Dec ? 00:38:26 10° NNE 00:42:38 39° E 00:46:43 10° SSE visible
09 Dec ? 02:15:01 10° N 02:19:02 33° WNW 02:22:57 10° SW visible
10 Dec ? 01:00:21 10° NNE 01:04:46 61° ESE 01:09:03 10° S visible
10 Dec ? 02:37:21 10° N 02:40:53 23° WNW 02:44:19 10° WSW visible
11 Dec ? 01:22:21 10° NNE 01:26:49 87° WNW 01:31:08 10° SSW visible
11 Dec ? 02:59:49 10° NNW 03:02:39 17° NW 03:05:25 10° W visible
12 Dec ? 00:08:29 10° NE 00:11:58 22° E 00:15:22 10° SE visible
12 Dec ? 01:44:27 10° N 01:48:47 57° WNW 01:53:01 10° SSW visible
12 Dec ? 03:22:39 10° NNW 03:24:20 12° NW 03:26:01 10° WNW visible
13 Dec ? 00:30:10 10° NNE 00:34:10 33° E 00:38:05 10° SSE visible
13 Dec ? 02:06:36 10° N 02:10:41 38° WNW 02:14:40 10° SW visible
14 Dec ? 00:51:59 10° NNE 00:56:18 51° E 01:00:29 10° S visible
14 Dec ? 02:28:51 10° N 02:32:31 26° WNW 02:36:06 10° WSW visible
15 Dec ? 01:13:56 10° NNE 01:18:21 80° ESE 01:22:37 10° SSW visible
15 Dec ? 02:51:14 10° N 02:54:16 19° NW 02:57:16 10° W visible
16 Dec ? 01:35:57 10° N 01:40:18 67° WNW 01:44:33 10° SSW visible
16 Dec ? 03:13:52 10° NNW 03:15:58 13° NW 03:18:02 10° W visible
